Weather History for West Palm Beach, FL

Change the Weather History Date:

Friday, March 22, 2013

  Actual Average Record
Temperature  
Mean Temperature 66 °F 71 °F  
Max Temperature 77 °F 79 °F 94 °F (1977)
Min Temperature 54 °F 63 °F 42 °F (1924)
Degree Days  
Heating Degree Days 0 1  
Month to date heating degree days 59 22  
Since 1 July heating degree days 142 227  
Cooling Degree Days 1 6  
Month to date cooling degree days 51 130  
Year to date cooling degree days 432 365  
Growing Degree Days 16 (Base 50)    
Moisture  
Dew Point 57 °F    
Average Humidity 69    
Maximum Humidity 87    
Minimum Humidity 50    
Precipitation  
Precipitation 0.02 in 0.16 in 1.64 in (1925)
Month to date precipitation 0.59 3.25  
Year to date precipitation 3.78 9.20  
Snow  
Snow 0.00 in - - ()
Month to date snowfall 0.0  
Since 1 July snowfall 0.0  
Snow Depth 0.00 in    
Sea Level Pressure  
Sea Level Pressure 29.95 in    
Wind  
Wind Speed 8 mph (SE)    
Max Wind Speed 20 mph    
Max Gust Speed 25 mph    
Visibility 10 miles    
Events      
T = Trace of Precipitation, MM = Missing Value Source: NWS Daily Summary

Daily Weather History Graph

Daily Weather History Graph

Search for Another Location

Airport:

Trip Planner

Search our weather history database for the weather conditions in past years. The results will help you decide how hot, cold, wet, or windy it might be!

Date:

Astronomy

Mar. 22, 2013 Rise Set
Actual Time 7:21 AM EDT 7:32 PM EDT
Civil Twilight 6:58 AM EDT 7:55 PM EDT
Nautical Twilight 6:31 AM EDT 8:22 PM EDT
Astronomical Twilight 6:04 AM EDT 8:50 PM EDT
Moon 3:20 PM EDT (3/22) 3:57 AM EDT (3/22)
Length of Visible Light 12h 57m
Length of Day
12h 10m
Waxing Gibbous, 77% of the Moon is Illuminated
Mar 22
Waxing Gibbous
Mar 27
Full
Apr 3
Last Quarter
Apr 10
New
Apr 18
First Quarter

Hourly Weather History & Observations

Time (EDT) Temp. Dew Point Humidity Pressure Visibility Wind Dir Wind Speed Gust Speed Precip Events Conditions
12:53 AM 57.9 °F 48.0 °F 70% 29.94 in 10.0 mi Calm Calm - N/A   Partly Cloudy
1:53 AM 55.9 °F 48.9 °F 77% 29.93 in 10.0 mi Calm Calm - N/A   Partly Cloudy
2:53 AM 55.0 °F 48.9 °F 80% 29.92 in 10.0 mi Calm Calm - N/A   Partly Cloudy
3:53 AM 54.0 °F 48.9 °F 83% 29.91 in 10.0 mi Calm Calm - N/A   Clear
4:53 AM 55.0 °F 48.9 °F 80% 29.91 in 10.0 mi Calm Calm - N/A   Clear
5:53 AM 55.0 °F 50.0 °F 83% 29.92 in 10.0 mi Calm Calm - N/A   Clear
6:53 AM 55.0 °F 50.0 °F 83% 29.94 in 10.0 mi Calm Calm - N/A   Partly Cloudy
7:53 AM 57.9 °F 53.1 °F 84% 29.97 in 10.0 mi Calm Calm - N/A   Mostly Cloudy
8:53 AM 66.0 °F 54.0 °F 65% 29.98 in 10.0 mi Calm Calm - N/A   Scattered Clouds
9:53 AM 73.0 °F 55.0 °F 53% 29.99 in 10.0 mi ESE 10.4 mph - N/A   Mostly Cloudy
10:53 AM 73.0 °F 55.0 °F 53% 30.01 in 10.0 mi SE 11.5 mph 18.4 mph N/A   Mostly Cloudy
11:53 AM 75.0 °F 55.9 °F 51% 30.01 in 10.0 mi ESE 13.8 mph 19.6 mph N/A   Mostly Cloudy
12:53 PM 75.0 °F 55.9 °F 51% 30.01 in 10.0 mi ESE 15.0 mph 21.9 mph N/A   Mostly Cloudy
1:53 PM 73.0 °F 55.0 °F 53% 29.98 in 10.0 mi SE 13.8 mph - N/A   Overcast
2:53 PM 73.9 °F 55.9 °F 53% 29.96 in 10.0 mi SE 15.0 mph - N/A   Mostly Cloudy
3:53 PM 73.0 °F 55.0 °F 53% 29.94 in 10.0 mi SE 13.8 mph - N/A   Mostly Cloudy
4:53 PM 75.0 °F 57.0 °F 53% 29.92 in 10.0 mi SE 17.3 mph - N/A   Mostly Cloudy
5:53 PM 73.0 °F 57.9 °F 59% 29.93 in 10.0 mi SE 12.7 mph - N/A   Mostly Cloudy
6:32 PM 73.4 °F 60.8 °F 65% 29.93 in 10.0 mi SE 11.5 mph 19.6 mph N/A   Mostly Cloudy
6:53 PM 73.0 °F 61.0 °F 66% 29.94 in 10.0 mi SE 11.5 mph - N/A   Mostly Cloudy
7:53 PM 73.0 °F 64.0 °F 73% 29.94 in 10.0 mi SSE 11.5 mph - N/A   Mostly Cloudy
8:23 PM 73.4 °F 64.4 °F 73% 29.94 in 10.0 mi SSE 13.8 mph - N/A   Mostly Cloudy
8:53 PM 73.9 °F 66.0 °F 76% 29.96 in 10.0 mi SSE 12.7 mph - N/A   Overcast
8:59 PM 73.4 °F 66.2 °F 78% 29.96 in 10.0 mi SSE 12.7 mph - N/A   Overcast
9:53 PM 73.9 °F 66.9 °F 79% 29.97 in 10.0 mi SSE 10.4 mph - N/A   Overcast
10:53 PM 73.0 °F 69.1 °F 87% 29.98 in 10.0 mi SE 10.4 mph - 0.02 in   Overcast
11:53 PM 73.0 °F 69.1 °F 87% 29.99 in 10.0 mi South 5.8 mph - N/A   Mostly Cloudy